Weather History for Clarinda, IA

Change the Weather History Date:

Saturday, January 26, 2013

  Actual Average Record
Temperature  
Mean Temperature 29 °F -  
Max Temperature 44 °F 33 °F 66 °F (2002)
Min Temperature 14 °F 15 °F 0 °F (1997)
Degree Days  
Heating Degree Days 36    
Moisture  
Dew Point 12 °F    
Average Humidity 53    
Maximum Humidity 86    
Minimum Humidity 29    
Precipitation  
Precipitation 0.00 in - - ()
Sea Level Pressure  
Sea Level Pressure 30.20 in    
Wind  
Wind Speed 6 mph (SE)    
Max Wind Speed 14 mph    
Max Gust Speed 18 mph    
Visibility 10 miles    
Events      
Averages and records for this station are not official NWS values.
T = Trace of Precipitation, MM = Missing Value Source: NWS Daily Summary

Daily Weather History Graph

Daily Weather History Graph

Search for Another Location

Airport:

Trip Planner

Search our weather history database for the weather conditions in past years. The results will help you decide how hot, cold, wet, or windy it might be!

Date:

Astronomy

Jan. 26, 2013 Rise Set
Actual Time 7:35 AM CST 5:30 PM CST
Civil Twilight 7:05 AM CST 6:00 PM CST
Nautical Twilight 6:32 AM CST 6:33 PM CST
Astronomical Twilight 6:00 AM CST 7:05 PM CST
Moon 5:26 PM CST (1/26) 6:53 AM CST (1/26)
Length of Visible Light 10h 54m
Length of Day
9h 55m
Full, 100% of the Moon is Illuminated
Jan 26
Full
Jan 26
Full
Feb 3
Last Quarter
Feb 10
New
Feb 17
First Quarter

Hourly Weather History & Observations

Time (CST) Temp. Windchill Dew Point Humidity Pressure Visibility Wind Dir Wind Speed Gust Speed Precip Events Conditions
12:15 AM 21.2 °F 14.9 °F 15.8 °F 80% 30.25 in 10.0 mi NNE 4.6 mph - N/A   Clear
12:35 AM 21.2 °F 14.9 °F 17.6 °F 86% 30.25 in 10.0 mi North 4.6 mph - N/A   Clear
12:55 AM 23.0 °F 15.8 °F 17.6 °F 80% 30.25 in 10.0 mi NE 5.8 mph - N/A   Clear
1:15 AM 23.0 °F 17.0 °F 17.6 °F 80% 30.26 in 10.0 mi NE 4.6 mph - N/A   Clear
1:35 AM 21.2 °F 13.6 °F 15.8 °F 80% 30.26 in 10.0 mi NE 5.8 mph - N/A   Clear
1:55 AM 21.2 °F 16.4 °F 14.0 °F 74% 30.27 in 10.0 mi NE 3.5 mph - N/A   Clear
2:15 AM 19.4 °F 10.4 °F 12.2 °F 74% 30.27 in 10.0 mi NE 6.9 mph - N/A   Clear
2:35 AM 19.4 °F 11.5 °F 10.4 °F 68% 30.28 in 10.0 mi NE 5.8 mph - N/A   Clear
2:55 AM 17.6 °F 10.7 °F 10.4 °F 73% 30.28 in 10.0 mi NNE 4.6 mph - N/A   Clear
3:15 AM 17.6 °F - 8.6 °F 68% 30.28 in 10.0 mi Calm Calm - N/A   Clear
3:35 AM 15.8 °F - 8.6 °F 73% 30.28 in 10.0 mi Calm Calm - N/A   Clear
3:55 AM 15.8 °F 10.2 °F 8.6 °F 73% 30.27 in 10.0 mi ENE 3.5 mph - N/A   Clear
4:15 AM 15.8 °F 10.2 °F 6.8 °F 68% 30.26 in 10.0 mi ENE 3.5 mph - N/A   Clear
4:35 AM 15.8 °F - 6.8 °F 68% 30.26 in 10.0 mi Calm Calm - N/A   Clear
4:55 AM 15.8 °F - 6.8 °F 68% 30.26 in 10.0 mi Calm Calm - N/A   Clear
5:15 AM 15.8 °F - 6.8 °F 68% 30.26 in 10.0 mi Calm Calm - N/A   Clear
5:35 AM 15.8 °F 10.2 °F 6.8 °F 68% 30.27 in 10.0 mi ENE 3.5 mph - N/A   Clear
5:55 AM 15.8 °F - 6.8 °F 68% 30.28 in 10.0 mi Calm Calm - N/A   Clear
6:15 AM 15.8 °F - 6.8 °F 68% 30.28 in 10.0 mi Calm Calm - N/A   Clear
6:35 AM 15.8 °F 10.2 °F 6.8 °F 68% 30.28 in 10.0 mi East 3.5 mph - N/A   Clear
7:15 AM 15.8 °F 10.2 °F 6.8 °F 68% 30.28 in 10.0 mi East 3.5 mph - N/A   Clear
7:35 AM 14.0 °F - 6.8 °F 73% 30.28 in 10.0 mi Calm Calm - N/A   Clear
7:55 AM 15.8 °F 10.2 °F 6.8 °F 68% 30.28 in 10.0 mi ESE 3.5 mph - N/A   Clear
8:15 AM 15.8 °F 8.6 °F 6.8 °F 68% 30.29 in 10.0 mi ESE 4.6 mph - N/A   Clear
8:35 AM 15.8 °F 7.2 °F 6.8 °F 68% 30.30 in 10.0 mi SE 5.8 mph - N/A   Clear
8:55 AM 17.6 °F 8.2 °F 5.0 °F 58% 30.30 in 10.0 mi SE 6.9 mph - N/A   Clear
9:15 AM 17.6 °F 6.4 °F 6.8 °F 63% 30.30 in 10.0 mi ESE 9.2 mph - N/A   Clear
9:35 AM 19.4 °F 10.4 °F 6.8 °F 58% 30.30 in 10.0 mi ESE 6.9 mph - N/A   Clear
9:55 AM 21.2 °F 11.7 °F 6.8 °F 54% 30.30 in 10.0 mi East 8.1 mph - N/A   Clear
10:15 AM 21.2 °F 11.7 °F 6.8 °F 54% 30.30 in 10.0 mi SE 8.1 mph - N/A   Clear
10:35 AM 24.8 °F 16.9 °F 6.8 °F 46% 30.30 in 10.0 mi SE 6.9 mph - N/A   Clear
10:55 AM 24.8 °F 15.3 °F 8.6 °F 50% 30.29 in 10.0 mi SE 9.2 mph - N/A   Clear
11:15 AM 28.4 °F 22.2 °F 8.6 °F 43% 30.28 in 10.0 mi SE 5.8 mph - N/A   Clear
11:35 AM 30.2 °F 21.9 °F 8.6 °F 40% 30.27 in 10.0 mi SE 9.2 mph - N/A   Scattered Clouds
11:55 AM 32.0 °F 23.6 °F 10.4 °F 41% 30.26 in 10.0 mi SSE 10.4 mph - N/A   Mostly Cloudy
12:15 PM 33.8 °F 24.3 °F 10.4 °F 38% 30.24 in 10.0 mi SSE 13.8 mph - N/A   Scattered Clouds
12:35 PM 35.6 °F 28.0 °F 10.4 °F 35% 30.22 in 10.0 mi SE 10.4 mph - N/A   Clear
12:55 PM 35.6 °F 29.2 °F 12.2 °F 38% 30.21 in 10.0 mi SSE 8.1 mph - N/A   Clear
1:15 PM 39.2 °F 32.5 °F 12.2 °F 33% 30.20 in 10.0 mi SSE 10.4 mph - N/A   Clear
1:35 PM 39.2 °F 33.6 °F 12.2 °F 33% 30.18 in 10.0 mi SE 8.1 mph - N/A   Clear
1:55 PM 41.0 °F 35.2 °F 14.0 °F 33% 30.18 in 10.0 mi SSE 9.2 mph - N/A   Clear
2:15 PM 42.8 °F 38.6 °F 14.0 °F 31% 30.16 in 10.0 mi SE 6.9 mph - N/A   Clear
2:35 PM 44.6 °F 38.8 °F 14.0 °F 29% 30.15 in 10.0 mi SSE 11.5 mph - N/A   Clear
2:55 PM 44.6 °F 38.8 °F 14.0 °F 29% 30.15 in 10.0 mi SSE 11.5 mph - N/A   Clear
3:15 PM 44.6 °F 38.4 °F 15.8 °F 31% 30.15 in 10.0 mi SSE 12.7 mph 18.4 mph N/A   Clear
3:35 PM 44.6 °F 40.2 °F 15.8 °F 31% 30.14 in 10.0 mi SSE 8.1 mph - N/A   Clear
3:55 PM 42.8 °F 37.0 °F 15.8 °F 34% 30.14 in 10.0 mi SSE 10.4 mph - N/A   Clear
4:15 PM 42.8 °F 37.0 °F 15.8 °F 34% 30.13 in 10.0 mi SSE 10.4 mph - N/A   Clear
4:35 PM 42.8 °F 37.0 °F 15.8 °F 34% 30.12 in 10.0 mi SSE 10.4 mph 16.1 mph N/A   Clear
4:55 PM 41.0 °F 34.7 °F 15.8 °F 36% 30.12 in 10.0 mi SSE 10.4 mph - N/A   Clear
5:15 PM 39.2 °F 33.6 °F 15.8 °F 39% 30.12 in 10.0 mi SSE 8.1 mph - N/A   Clear
5:35 PM 37.4 °F 32.1 °F 15.8 °F 41% 30.12 in 10.0 mi SSE 6.9 mph - N/A   Clear
5:55 PM 35.6 °F 29.9 °F 15.8 °F 44% 30.11 in 10.0 mi SSE 6.9 mph - N/A   Clear
6:15 PM 35.6 °F 31.7 °F 15.8 °F 44% 30.12 in 10.0 mi SSE 4.6 mph - N/A   Clear
6:35 PM 35.6 °F 30.7 °F 15.8 °F 44% 30.12 in 10.0 mi SSE 5.8 mph - N/A   Clear
6:55 PM 35.6 °F 31.7 °F 15.8 °F 44% 30.11 in 10.0 mi South 4.6 mph - N/A   Clear
7:15 PM 35.6 °F 30.7 °F 15.8 °F 44% 30.11 in 10.0 mi SSE 5.8 mph - N/A   Clear
7:35 PM 33.8 °F - 15.8 °F 48% 30.11 in 10.0 mi Calm Calm - N/A   Clear
7:55 PM 33.8 °F 27.7 °F 15.8 °F 48% 30.11 in 10.0 mi SSE 6.9 mph - N/A   Clear
8:15 PM 33.8 °F 28.6 °F 15.8 °F 48% 30.11 in 10.0 mi SSE 5.8 mph - N/A   Clear
8:35 PM 33.8 °F 27.0 °F 15.8 °F 48% 30.11 in 10.0 mi SSE 8.1 mph - N/A   Clear
8:55 PM 33.8 °F 27.0 °F 15.8 °F 48% 30.11 in 10.0 mi SSE 8.1 mph - N/A   Clear
9:15 PM 33.8 °F 26.4 °F 15.8 °F 48% 30.11 in 10.0 mi South 9.2 mph - N/A   Clear
9:35 PM 33.8 °F 26.4 °F 15.8 °F 48% 30.11 in 10.0 mi SSE 9.2 mph - N/A   Clear
9:55 PM 33.8 °F 25.8 °F 15.8 °F 48% 30.10 in 10.0 mi SSE 10.4 mph - N/A   Mostly Cloudy
10:15 PM 33.8 °F 26.4 °F 15.8 °F 48% 30.09 in 10.0 mi SSE 9.2 mph - N/A   Scattered Clouds
10:35 PM 33.8 °F 27.0 °F 15.8 °F 48% 30.09 in 10.0 mi SSE 8.1 mph - N/A   Clear
10:55 PM 33.8 °F 27.0 °F 15.8 °F 48% 30.08 in 10.0 mi South 8.1 mph - N/A   Clear
11:15 PM 33.8 °F 25.8 °F 15.8 °F 48% 30.08 in 10.0 mi SSE 10.4 mph - N/A   Clear
11:35 PM 35.6 °F 28.0 °F 15.8 °F 44% 30.08 in 10.0 mi SSE 10.4 mph - N/A   Clear
11:55 PM 35.6 °F 28.0 °F 15.8 °F 44% 30.08 in 10.0 mi SSE 10.4 mph 17.3 mph N/A   Clear